TimeEDT,TemperatureF,Dew PointF,Humidity,Sea Level PressureIn,VisibilityMPH,Wind Direction,Wind SpeedMPH,Gust SpeedMPH,PrecipitationIn,Events,Conditions,WindDirDegrees,DateUTC
12:53 AM,69.1,66.0,90,30.12,6.0,Calm,Calm,-,N/A,,Clear,0,2013-06-24 04:53:00
1:53 AM,69.1,64.9,87,30.12,8.0,Calm,Calm,-,N/A,,Clear,0,2013-06-24 05:53:00
2:53 AM,66.9,64.0,90,30.11,6.0,Calm,Calm,-,N/A,,Clear,0,2013-06-24 06:53:00
3:53 AM,66.0,64.0,93,30.11,5.0,Calm,Calm,-,N/A,,Clear,0,2013-06-24 07:53:00
4:53 AM,66.0,63.0,90,30.11,5.0,Calm,Calm,-,N/A,,Clear,0,2013-06-24 08:53:00
5:53 AM,63.0,62.1,97,30.13,5.0,Calm,Calm,-,N/A,,Clear,0,2013-06-24 09:53:00
6:53 AM,66.0,63.0,90,30.13,5.0,Calm,Calm,-,N/A,,Clear,0,2013-06-24 10:53:00
7:53 AM,71.1,64.9,81,30.14,9.0,Calm,Calm,-,N/A,,Clear,0,2013-06-24 11:53:00
8:53 AM,75.0,66.0,73,30.14,10.0,Calm,Calm,-,N/A,,Clear,0,2013-06-24 12:53:00
9:53 AM,79.0,66.0,64,30.15,10.0,WSW,3.5,-,N/A,,Partly Cloudy,250,2013-06-24 13:53:00
10:53 AM,81.0,66.0,60,30.15,10.0,WSW,5.8,-,N/A,,Mostly Cloudy,240,2013-06-24 14:53:00
11:53 AM,82.9,66.0,56,30.14,10.0,SSW,6.9,-,N/A,,Scattered Clouds,210,2013-06-24 15:53:00
12:53 PM,80.1,61.0,52,30.13,10.0,Variable,5.8,-,N/A,,Partly Cloudy,0,2013-06-24 16:53:00
1:53 PM,82.0,64.9,56,30.11,10.0,SSW,5.8,-,N/A,,Clear,200,2013-06-24 17:53:00
2:53 PM,86.0,64.0,48,30.08,10.0,WSW,8.1,-,N/A,,Partly Cloudy,240,2013-06-24 18:53:00
3:53 PM,86.0,64.0,48,30.06,10.0,WSW,10.4,-,N/A,,Partly Cloudy,240,2013-06-24 19:53:00
4:53 PM,82.0,66.0,58,30.05,10.0,South,6.9,-,N/A,,Mostly Cloudy,190,2013-06-24 20:53:00
5:53 PM,84.0,66.0,55,30.04,10.0,South,3.5,-,0.00,,Scattered Clouds,190,2013-06-24 21:53:00
6:53 PM,84.9,66.0,53,30.03,10.0,WNW,5.8,-,N/A,,Partly Cloudy,290,2013-06-24 22:53:00
7:53 PM,81.0,66.0,60,30.03,10.0,SSW,4.6,-,N/A,,Mostly Cloudy,210,2013-06-24 23:53:00
8:15 PM,73.4,66.2,78,30.08,2.5,NW,4.6,-,0.06,Rain,Light Rain,320,2013-06-25 00:15:00
8:22 PM,73.4,66.2,78,30.07,10.0,Calm,Calm,-,0.06,,Mostly Cloudy,0,2013-06-25 00:22:00
8:53 PM,71.1,68.0,90,30.04,9.0,Calm,Calm,-,0.06,,Clear,0,2013-06-25 00:53:00
9:53 PM,71.1,68.0,90,30.06,9.0,Calm,Calm,-,N/A,,Clear,0,2013-06-25 01:53:00
10:53 PM,71.1,68.0,90,30.06,8.0,Calm,Calm,-,N/A,,Clear,0,2013-06-25 02:53:00
11:53 PM,71.1,68.0,90,30.07,7.0,Calm,Calm,-,N/A,,Clear,0,2013-06-25 03:53:00